Time,TemperatureF,DewpointF,PressureIn,WindDirection,WindDirectionDegrees,WindSpeedMPH,WindSpeedGustMPH,Humidity,HourlyPrecipIn,Conditions,Clouds,dailyrainin,SoftwareType,DateUTC
2013-03-20 00:00:00,44.2,15.4,30.18,NE,53,4.0,4.0,31,0.00,,,0.00,Wunderground v.1.15,2013-03-20 06:00:00,
2013-03-20 00:06:00,44.7,15.1,30.18,NE,54,3.0,4.0,30,0.00,,,0.00,Wunderground v.1.15,2013-03-20 06:06:00,
2013-03-20 00:12:00,44.6,15.8,30.18,NE,53,2.0,3.0,31,0.00,,,0.00,Wunderground v.1.15,2013-03-20 06:12:00,
2013-03-20 00:17:00,44.5,15.7,30.18,NE,53,1.0,3.0,31,0.00,,,0.00,Wunderground v.1.15,2013-03-20 06:17:00,
2013-03-20 00:22:00,44.4,15.6,30.18,NE,53,2.0,3.0,31,0.00,,,0.00,Wunderground v.1.15,2013-03-20 06:22:00,
2013-03-20 00:27:00,44.3,15.5,30.19,NE,49,3.0,6.0,31,0.00,,,0.00,Wunderground v.1.15,2013-03-20 06:27:00,
2013-03-20 00:33:00,44.0,15.3,30.19,NE,48,3.0,3.0,31,0.00,,,0.00,Wunderground v.1.15,2013-03-20 06:33:00,
2013-03-20 00:38:00,43.6,14.9,30.19,NE,46,2.0,7.0,31,0.00,,,0.00,Wunderground v.1.15,2013-03-20 06:38:00,
2013-03-20 00:44:00,43.7,15.0,30.19,NE,44,4.0,7.0,31,0.00,,,0.00,Wunderground v.1.15,2013-03-20 06:44:00,
2013-03-20 00:49:00,43.4,15.5,30.19,NE,44,5.0,7.0,32,0.00,,,0.00,Wunderground v.1.15,2013-03-20 06:49:00,
2013-03-20 00:55:00,43.3,15.4,30.19,NE,44,4.0,5.0,32,0.00,,,0.00,Wunderground v.1.15,2013-03-20 06:55:00,
2013-03-20 01:00:00,43.2,15.3,30.19,NE,44,4.0,4.0,32,0.00,,,0.00,Wunderground v.1.15,2013-03-20 07:00:00,
2013-03-20 01:06:00,42.7,14.8,30.20,NE,44,3.0,4.0,32,0.00,,,0.00,Wunderground v.1.15,2013-03-20 07:06:00,
2013-03-20 01:11:00,42.5,15.4,30.20,NE,44,2.0,2.0,33,0.00,,,0.00,Wunderground v.1.15,2013-03-20 07:11:00,
2013-03-20 01:16:00,42.2,15.1,30.20,NE,44,1.0,2.0,33,0.00,,,0.00,Wunderground v.1.15,2013-03-20 07:16:00,
2013-03-20 01:22:00,41.5,14.5,30.21,NE,44,0.0,0.0,33,0.00,,,0.00,Wunderground v.1.15,2013-03-20 07:22:00,
2013-03-20 01:28:00,40.7,15.1,30.21,NE,44,0.0,0.0,35,0.00,,,0.00,Wunderground v.1.15,2013-03-20 07:28:00,
2013-03-20 01:33:00,40.4,15.5,30.21,NE,44,0.0,3.0,36,0.00,,,0.00,Wunderground v.1.15,2013-03-20 07:33:00,
2013-03-20 01:39:00,40.6,15.7,30.20,NE,44,1.0,3.0,36,0.00,,,0.00,Wunderground v.1.15,2013-03-20 07:39:00,
2013-03-20 01:44:00,40.7,15.8,30.21,NE,44,0.0,1.0,36,0.00,,,0.00,Wunderground v.1.15,2013-03-20 07:44:00,
2013-03-20 01:49:00,40.4,14.9,30.21,NE,44,0.0,1.0,35,0.00,,,0.00,Wunderground v.1.15,2013-03-20 07:49:00,
2013-03-20 01:55:00,39.9,15.1,30.21,NE,44,0.0,1.0,36,0.00,,,0.00,Wunderground v.1.15,2013-03-20 07:55:00,
2013-03-20 02:00:00,39.7,14.9,30.21,NE,44,0.0,1.0,36,0.00,,,0.00,Wunderground v.1.15,2013-03-20 08:00:00,
2013-03-20 02:06:00,39.6,14.8,30.21,NE,44,0.0,1.0,36,0.00,,,0.00,Wunderground v.1.15,2013-03-20 08:06:00,
2013-03-20 02:12:00,39.4,15.3,30.21,NE,44,0.0,2.0,37,0.00,,,0.00,Wunderground v.1.15,2013-03-20 08:12:00,
2013-03-20 02:18:00,39.5,14.7,30.21,NE,44,2.0,4.0,36,0.00,,,0.00,Wunderground v.1.15,2013-03-20 08:18:00,
2013-03-20 02:24:00,38.9,14.8,30.21,NE,44,3.0,4.0,37,0.00,,,0.00,Wunderground v.1.15,2013-03-20 08:24:00,
2013-03-20 02:29:00,39.0,15.5,30.21,NE,44,3.0,4.0,38,0.00,,,0.00,Wunderground v.1.15,2013-03-20 08:29:00,
2013-03-20 02:34:00,39.1,15.0,30.21,NE,44,1.0,2.0,37,0.00,,,0.00,Wunderground v.1.15,2013-03-20 08:34:00,
2013-03-20 02:40:00,39.1,15.0,30.21,NE,44,0.0,0.0,37,0.00,,,0.00,Wunderground v.1.15,2013-03-20 08:40:00,
2013-03-20 02:45:00,39.0,14.9,30.21,NE,44,0.0,2.0,37,0.00,,,0.00,Wunderground v.1.15,2013-03-20 08:45:00,
2013-03-20 02:51:00,39.0,14.9,30.21,NE,44,0.0,0.0,37,0.00,,,0.00,Wunderground v.1.15,2013-03-20 08:51:00,
2013-03-20 02:57:00,38.8,14.7,30.22,NE,44,0.0,0.0,37,0.00,,,0.00,Wunderground v.1.15,2013-03-20 08:57:00,
2013-03-20 03:03:00,38.4,15.0,30.21,NE,44,0.0,0.0,38,0.00,,,0.00,Wunderground v.1.15,2013-03-20 09:03:00,
2013-03-20 03:08:00,37.9,14.5,30.21,NE,44,0.0,2.0,38,0.00,,,0.00,Wunderground v.1.15,2013-03-20 09:08:00,
2013-03-20 03:14:00,37.3,14.6,30.20,NE,44,0.0,1.0,39,0.00,,,0.00,Wunderground v.1.15,2013-03-20 09:14:00,
2013-03-20 03:19:00,36.9,14.2,30.19,NE,44,1.0,3.0,39,0.00,,,0.00,Wunderground v.1.15,2013-03-20 09:19:00,
2013-03-20 03:24:00,36.8,14.1,30.19,NE,44,0.0,2.0,39,0.00,,,0.00,Wunderground v.1.15,2013-03-20 09:24:00,
2013-03-20 03:30:00,36.6,13.9,30.19,NE,44,0.0,0.0,39,0.00,,,0.00,Wunderground v.1.15,2013-03-20 09:30:00,
2013-03-20 03:36:00,36.5,13.9,30.19,NE,44,0.0,0.0,39,0.00,,,0.00,Wunderground v.1.15,2013-03-20 09:36:00,
2013-03-20 03:42:00,36.3,14.3,30.20,NE,44,0.0,0.0,40,0.00,,,0.00,Wunderground v.1.15,2013-03-20 09:42:00,
2013-03-20 03:47:00,36.0,14.0,30.20,NE,44,0.0,0.0,40,0.00,,,0.00,Wunderground v.1.15,2013-03-20 09:47:00,
2013-03-20 03:53:00,35.5,13.5,30.19,NE,44,0.0,0.0,40,0.00,,,0.00,Wunderground v.1.15,2013-03-20 09:53:00,
2013-03-20 03:58:00,35.1,13.2,30.20,NE,44,0.0,1.0,40,0.00,,,0.00,Wunderground v.1.15,2013-03-20 09:58:00,
2013-03-20 04:03:00,34.7,12.8,30.20,NE,44,0.0,1.0,40,0.00,,,0.00,Wunderground v.1.15,2013-03-20 10:03:00,
2013-03-20 04:09:00,34.8,13.5,30.21,NE,44,1.0,3.0,41,0.00,,,0.00,Wunderground v.1.15,2013-03-20 10:09:00,
2013-03-20 04:14:00,34.8,13.5,30.21,NE,44,1.0,1.0,41,0.00,,,0.00,Wunderground v.1.15,2013-03-20 10:14:00,
2013-03-20 04:20:00,34.6,13.3,30.20,NE,44,2.0,2.0,41,0.00,,,0.00,Wunderground v.1.15,2013-03-20 10:20:00,
2013-03-20 04:25:00,34.4,13.1,30.20,NE,44,1.0,2.0,41,0.00,,,0.00,Wunderground v.1.15,2013-03-20 10:25:00,
2013-03-20 04:30:00,34.4,13.1,30.20,NE,44,0.0,0.0,41,0.00,,,0.00,Wunderground v.1.15,2013-03-20 10:30:00,
2013-03-20 04:36:00,34.2,12.9,30.20,NE,44,0.0,2.0,41,0.00,,,0.00,Wunderground v.1.15,2013-03-20 10:36:00,
2013-03-20 04:42:00,34.0,13.3,30.20,NE,44,0.0,2.0,42,0.00,,,0.00,Wunderground v.1.15,2013-03-20 10:42:00,
2013-03-20 04:47:00,33.8,13.1,30.20,NE,44,1.0,3.0,42,0.00,,,0.00,Wunderground v.1.15,2013-03-20 10:47:00,
2013-03-20 04:53:00,33.7,13.0,30.20,NE,44,3.0,3.0,42,0.00,,,0.00,Wunderground v.1.15,2013-03-20 10:53:00,
2013-03-20 04:59:00,33.6,12.9,30.20,NE,44,2.0,3.0,42,0.00,,,0.00,Wunderground v.1.15,2013-03-20 10:59:00,
2013-03-20 05:05:00,33.6,13.5,30.20,NE,44,2.0,4.0,43,0.00,,,0.00,Wunderground v.1.15,2013-03-20 11:05:00,
2013-03-20 05:10:00,33.8,13.1,30.21,NE,44,3.0,3.0,42,0.00,,,0.00,Wunderground v.1.15,2013-03-20 11:10:00,
2013-03-20 05:16:00,33.9,13.2,30.22,NE,44,3.0,5.0,42,0.00,,,0.00,Wunderground v.1.15,2013-03-20 11:16:00,
2013-03-20 05:21:00,34.2,13.5,30.22,NE,44,3.0,4.0,42,0.00,,,0.00,Wunderground v.1.15,2013-03-20 11:21:00,
2013-03-20 05:26:00,34.4,13.6,30.22,NE,44,3.0,4.0,42,0.00,,,0.00,Wunderground v.1.15,2013-03-20 11:26:00,
2013-03-20 05:32:00,34.4,13.6,30.22,NE,44,4.0,6.0,42,0.00,,,0.00,Wunderground v.1.15,2013-03-20 11:32:00,
2013-03-20 05:38:00,34.6,13.8,30.23,NE,44,5.0,6.0,42,0.00,,,0.00,Wunderground v.1.15,2013-03-20 11:38:00,
2013-03-20 05:43:00,34.7,13.9,30.23,NE,44,4.0,5.0,42,0.00,,,0.00,Wunderground v.1.15,2013-03-20 11:43:00,
2013-03-20 05:48:00,34.8,14.0,30.24,NE,44,3.0,5.0,42,0.00,,,0.00,Wunderground v.1.15,2013-03-20 11:48:00,
2013-03-20 05:54:00,34.7,13.9,30.24,NE,44,3.0,4.0,42,0.00,,,0.00,Wunderground v.1.15,2013-03-20 11:54:00,
2013-03-20 05:59:00,34.7,13.9,30.24,NE,44,2.0,4.0,42,0.00,,,0.00,Wunderground v.1.15,2013-03-20 11:59:00,
2013-03-20 06:04:00,34.7,13.9,30.24,NE,44,3.0,4.0,42,0.00,,,0.00,Wunderground v.1.15,2013-03-20 12:04:00,
2013-03-20 06:09:00,34.8,14.0,30.25,NE,44,4.0,5.0,42,0.00,,,0.00,Wunderground v.1.15,2013-03-20 12:09:00,
2013-03-20 06:14:00,34.8,14.0,30.25,NE,44,4.0,5.0,42,0.00,,,0.00,Wunderground v.1.15,2013-03-20 12:14:00,
2013-03-20 06:20:00,34.7,13.9,30.25,NE,44,4.0,5.0,42,0.00,,,0.00,Wunderground v.1.15,2013-03-20 12:20:00,
2013-03-20 06:25:00,34.6,13.8,30.25,NE,44,3.0,5.0,42,0.00,,,0.00,Wunderground v.1.15,2013-03-20 12:25:00,
2013-03-20 06:30:00,34.4,14.2,30.25,NE,44,3.0,3.0,43,0.00,,,0.00,Wunderground v.1.15,2013-03-20 12:30:00,
2013-03-20 06:36:00,34.3,14.1,30.25,NE,44,2.0,4.0,43,0.00,,,0.00,Wunderground v.1.15,2013-03-20 12:36:00,
2013-03-20 06:42:00,33.9,13.7,30.25,NE,44,3.0,4.0,43,0.00,,,0.00,Wunderground v.1.15,2013-03-20 12:42:00,
2013-03-20 06:48:00,33.4,14.3,30.25,NE,44,4.0,4.0,45,0.00,,,0.00,Wunderground v.1.15,2013-03-20 12:48:00,
2013-03-20 06:54:00,33.7,14.1,30.25,NE,44,4.0,5.0,44,0.00,,,0.00,Wunderground v.1.15,2013-03-20 12:54:00,
2013-03-20 07:00:00,34.1,14.4,30.25,NE,44,3.0,3.0,44,0.00,,,0.00,Wunderground v.1.15,2013-03-20 13:00:00,
2013-03-20 07:06:00,34.3,14.6,30.25,NE,44,3.0,5.0,44,0.00,,,0.00,Wunderground v.1.15,2013-03-20 13:06:00,
2013-03-20 07:12:00,34.4,14.7,30.25,NE,44,3.0,3.0,44,0.00,,,0.00,Wunderground v.1.15,2013-03-20 13:12:00,
2013-03-20 07:17:00,34.3,14.6,30.25,NE,44,2.0,4.0,44,0.00,,,0.00,Wunderground v.1.15,2013-03-20 13:17:00,
2013-03-20 07:23:00,34.4,14.7,30.25,NE,44,3.0,4.0,44,0.00,,,0.00,Wunderground v.1.15,2013-03-20 13:23:00,
2013-03-20 07:29:00,34.5,14.8,30.25,NE,44,3.0,4.0,44,0.00,,,0.00,Wunderground v.1.15,2013-03-20 13:29:00,
2013-03-20 07:35:00,34.7,15.0,30.25,NE,44,3.0,5.0,44,0.00,,,0.00,Wunderground v.1.15,2013-03-20 13:35:00,
2013-03-20 07:40:00,34.9,14.6,30.25,NE,44,3.0,3.0,43,0.00,,,0.00,Wunderground v.1.15,2013-03-20 13:40:00,
2013-03-20 07:45:00,35.2,14.9,30.25,NE,44,3.0,4.0,43,0.00,,,0.00,Wunderground v.1.15,2013-03-20 13:45:00,
2013-03-20 07:51:00,35.6,15.3,30.25,NE,44,2.0,4.0,43,0.00,,,0.00,Wunderground v.1.15,2013-03-20 13:51:00,
2013-03-20 07:57:00,36.1,15.7,30.25,NE,44,3.0,4.0,43,0.00,,,0.00,Wunderground v.1.15,2013-03-20 13:57:00,
2013-03-20 08:02:00,36.6,15.6,30.26,NE,43,3.0,5.0,42,0.00,,,0.00,Wunderground v.1.15,2013-03-20 14:02:00,
2013-03-20 08:08:00,36.9,15.4,30.26,NE,43,3.0,5.0,41,0.00,,,0.00,Wunderground v.1.15,2013-03-20 14:08:00,
2013-03-20 08:14:00,37.3,15.7,30.26,NE,43,2.0,3.0,41,0.00,,,0.00,Wunderground v.1.15,2013-03-20 14:14:00,
2013-03-20 08:20:00,37.9,16.3,30.26,NE,43,2.0,5.0,41,0.00,,,0.00,Wunderground v.1.15,2013-03-20 14:20:00,
2013-03-20 08:25:00,38.5,16.2,30.26,NE,43,3.0,5.0,40,0.00,,,0.00,Wunderground v.1.15,2013-03-20 14:25:00,
2013-03-20 08:30:00,39.1,16.8,30.26,NE,43,3.0,5.0,40,0.00,,,0.00,Wunderground v.1.15,2013-03-20 14:30:00,
2013-03-20 08:36:00,39.9,16.9,30.26,NE,49,3.0,5.0,39,0.00,,,0.00,Wunderground v.1.15,2013-03-20 14:36:00,
2013-03-20 08:42:00,40.3,16.7,30.26,NE,51,3.0,6.0,38,0.00,,,0.00,Wunderground v.1.15,2013-03-20 14:42:00,
2013-03-20 08:47:00,40.7,17.0,30.27,NE,50,3.0,6.0,38,0.00,,,0.00,Wunderground v.1.15,2013-03-20 14:47:00,
2013-03-20 08:53:00,41.1,16.8,30.27,NE,53,2.0,3.0,37,0.00,,,0.00,Wunderground v.1.15,2013-03-20 14:53:00,
2013-03-20 08:59:00,41.3,16.9,30.27,NE,55,2.0,5.0,37,0.00,,,0.00,Wunderground v.1.15,2013-03-20 14:59:00,
2013-03-20 09:04:00,41.7,17.3,30.27,ENE,66,3.0,6.0,37,0.00,,,0.00,Wunderground v.1.15,2013-03-20 15:04:00,
2013-03-20 09:09:00,42.0,16.9,30.27,East,88,4.0,6.0,36,0.00,,,0.00,Wunderground v.1.15,2013-03-20 15:09:00,
2013-03-20 09:14:00,42.3,17.2,30.27,East,90,5.0,8.0,36,0.00,,,0.00,Wunderground v.1.15,2013-03-20 15:14:00,
2013-03-20 09:20:00,42.4,17.3,30.27,East,90,6.0,6.0,36,0.00,,,0.00,Wunderground v.1.15,2013-03-20 15:20:00,
2013-03-20 09:25:00,42.7,17.6,30.26,East,91,6.0,7.0,36,0.00,,,0.00,Wunderground v.1.15,2013-03-20 15:25:00,
2013-03-20 09:30:00,42.9,17.1,30.26,East,80,6.0,6.0,35,0.00,,,0.00,Wunderground v.1.15,2013-03-20 15:30:00,
2013-03-20 09:35:00,42.8,17.7,30.26,East,81,5.0,6.0,36,0.00,,,0.00,Wunderground v.1.15,2013-03-20 15:35:00,
2013-03-20 09:41:00,43.4,17.5,30.26,East,81,4.0,4.0,35,0.00,,,0.00,Wunderground v.1.15,2013-03-20 15:41:00,
2013-03-20 09:47:00,43.6,17.7,30.26,East,82,5.0,7.0,35,0.00,,,0.00,Wunderground v.1.15,2013-03-20 15:47:00,
2013-03-20 09:52:00,44.1,17.5,30.25,East,80,5.0,6.0,34,0.00,,,0.00,Wunderground v.1.15,2013-03-20 15:52:00,
2013-03-20 09:58:00,44.3,17.7,30.25,East,80,5.0,7.0,34,0.00,,,0.00,Wunderground v.1.15,2013-03-20 15:58:00,
2013-03-20 10:03:00,44.8,18.1,30.25,East,81,5.0,6.0,34,0.00,,,0.00,Wunderground v.1.15,2013-03-20 16:03:00,
2013-03-20 10:08:00,45.3,17.8,30.25,ENE,78,5.0,6.0,33,0.00,,,0.00,Wunderground v.1.15,2013-03-20 16:08:00,
2013-03-20 10:14:00,45.8,18.3,30.25,East,83,4.0,7.0,33,0.00,,,0.00,Wunderground v.1.15,2013-03-20 16:14:00,
2013-03-20 10:20:00,46.3,18.7,30.25,East,83,4.0,4.0,33,0.00,,,0.00,Wunderground v.1.15,2013-03-20 16:20:00,
2013-03-20 10:25:00,46.9,18.5,30.25,East,82,3.0,5.0,32,0.00,,,0.00,Wunderground v.1.15,2013-03-20 16:25:00,
2013-03-20 10:31:00,47.8,19.3,30.25,East,82,3.0,4.0,32,0.00,,,0.00,Wunderground v.1.15,2013-03-20 16:31:00,
2013-03-20 10:36:00,48.0,18.8,30.24,East,82,3.0,4.0,31,0.00,,,0.00,Wunderground v.1.15,2013-03-20 16:36:00,
2013-03-20 10:42:00,48.7,19.4,30.24,East,83,3.0,5.0,31,0.00,,,0.00,Wunderground v.1.15,2013-03-20 16:42:00,
2013-03-20 10:48:00,48.8,19.5,30.23,East,83,3.0,5.0,31,0.00,,,0.00,Wunderground v.1.15,2013-03-20 16:48:00,
2013-03-20 10:53:00,49.0,18.9,30.23,East,84,3.0,5.0,30,0.00,,,0.00,Wunderground v.1.15,2013-03-20 16:53:00,
2013-03-20 10:59:00,49.4,19.2,30.23,East,84,3.0,6.0,30,0.00,,,0.00,Wunderground v.1.15,2013-03-20 16:59:00,
2013-03-20 11:05:00,50.1,19.8,30.23,East,84,2.0,4.0,30,0.00,,,0.00,Wunderground v.1.15,2013-03-20 17:05:00,
2013-03-20 11:11:00,51.0,19.8,30.22,East,86,2.0,4.0,29,0.00,,,0.00,Wunderground v.1.15,2013-03-20 17:11:00,
2013-03-20 11:16:00,51.0,19.0,30.22,East,86,2.0,4.0,28,0.00,,,0.00,Wunderground v.1.15,2013-03-20 17:16:00,
2013-03-20 11:21:00,51.0,19.8,30.22,East,86,1.0,2.0,29,0.00,,,0.00,Wunderground v.1.15,2013-03-20 17:21:00,
2013-03-20 11:27:00,52.0,19.9,30.22,East,86,1.0,2.0,28,0.00,,,0.00,Wunderground v.1.15,2013-03-20 17:27:00,
2013-03-20 11:33:00,53.4,20.2,30.21,East,86,1.0,3.0,27,0.00,,,0.00,Wunderground v.1.15,2013-03-20 17:33:00,
2013-03-20 11:38:00,54.5,20.3,30.20,East,86,1.0,3.0,26,0.00,,,0.00,Wunderground v.1.15,2013-03-20 17:38:00,
2013-03-20 11:44:00,55.1,19.9,30.20,East,86,1.0,2.0,25,0.00,,,0.00,Wunderground v.1.15,2013-03-20 17:44:00,
2013-03-20 11:50:00,54.4,19.3,30.20,East,86,1.0,1.0,25,0.00,,,0.00,Wunderground v.1.15,2013-03-20 17:50:00,
2013-03-20 11:55:00,54.7,19.5,30.19,East,86,1.0,2.0,25,0.00,,,0.00,Wunderground v.1.15,2013-03-20 17:55:00,
2013-03-20 12:00:00,55.0,19.8,30.18,East,86,2.0,4.0,25,0.00,,,0.00,Wunderground v.1.15,2013-03-20 18:00:00,
2013-03-20 12:06:00,55.2,19.9,30.18,East,90,3.0,6.0,25,0.00,,,0.00,Wunderground v.1.15,2013-03-20 18:06:00,
2013-03-20 12:11:00,55.9,19.6,30.17,East,95,3.0,5.0,24,0.00,,,0.00,Wunderground v.1.15,2013-03-20 18:11:00,
2013-03-20 12:17:00,55.7,19.4,30.17,SE,133,3.0,7.0,24,0.00,,,0.00,Wunderground v.1.15,2013-03-20 18:17:00,
2013-03-20 12:22:00,56.3,19.9,30.17,SSW,211,3.0,6.0,24,0.00,,,0.00,Wunderground v.1.15,2013-03-20 18:22:00,
2013-03-20 12:28:00,55.9,19.6,30.17,SSW,213,5.0,7.0,24,0.00,,,0.00,Wunderground v.1.15,2013-03-20 18:28:00,
2013-03-20 12:33:00,56.6,20.2,30.16,SSW,194,4.0,5.0,24,0.00,,,0.00,Wunderground v.1.15,2013-03-20 18:33:00,
2013-03-20 12:39:00,57.0,19.5,30.16,SSW,205,4.0,11.0,23,0.00,,,0.00,Wunderground v.1.15,2013-03-20 18:39:00,
2013-03-20 12:44:00,56.4,20.0,30.15,SW,226,6.0,11.0,24,0.00,,,0.00,Wunderground v.1.15,2013-03-20 18:44:00,
2013-03-20 12:50:00,56.8,19.3,30.15,WSW,237,5.0,5.0,23,0.00,,,0.00,Wunderground v.1.15,2013-03-20 18:50:00,
2013-03-20 12:55:00,56.9,19.4,30.14,SW,236,6.0,9.0,23,0.00,,,0.00,Wunderground v.1.15,2013-03-20 18:55:00,
2013-03-20 13:00:00,57.3,19.8,30.14,South,182,6.0,6.0,23,0.00,,,0.00,Wunderground v.1.15,2013-03-20 19:00:00,
2013-03-20 13:06:00,57.6,19.0,30.14,SW,225,5.0,9.0,22,0.00,,,0.00,Wunderground v.1.15,2013-03-20 19:06:00,
2013-03-20 13:11:00,57.6,20.0,30.13,WSW,244,6.0,8.0,23,0.00,,,0.00,Wunderground v.1.15,2013-03-20 19:11:00,
2013-03-20 13:17:00,57.4,19.9,30.12,SSW,210,7.0,8.0,23,0.00,,,0.00,Wunderground v.1.15,2013-03-20 19:17:00,
2013-03-20 13:22:00,57.2,19.7,30.12,SW,226,6.0,11.0,23,0.00,,,0.00,Wunderground v.1.15,2013-03-20 19:22:00,
2013-03-20 13:28:00,57.3,19.8,30.11,SW,233,8.0,11.0,23,0.00,,,0.00,Wunderground v.1.15,2013-03-20 19:28:00,
2013-03-20 13:33:00,57.6,20.0,30.10,SW,235,7.0,9.0,23,0.00,,,0.00,Wunderground v.1.15,2013-03-20 19:33:00,
2013-03-20 13:39:00,58.2,19.5,30.10,SW,231,6.0,10.0,22,0.00,,,0.00,Wunderground v.1.15,2013-03-20 19:39:00,
2013-03-20 13:44:00,58.7,19.9,30.09,SSW,209,5.0,9.0,22,0.00,,,0.00,Wunderground v.1.15,2013-03-20 19:44:00,
2013-03-20 13:50:00,59.0,20.2,30.08,South,188,5.0,9.0,22,0.00,,,0.00,Wunderground v.1.15,2013-03-20 19:50:00,
2013-03-20 13:56:00,59.2,19.2,30.08,SSW,193,4.0,9.0,21,0.00,,,0.00,Wunderground v.1.15,2013-03-20 19:56:00,
2013-03-20 14:02:00,59.5,19.5,30.07,SW,232,5.0,9.0,21,0.00,,,0.00,Wunderground v.1.15,2013-03-20 20:02:00,
2013-03-20 14:07:00,59.6,19.6,30.07,SSW,211,7.0,9.0,21,0.00,,,0.00,Wunderground v.1.15,2013-03-20 20:07:00,
2013-03-20 14:12:00,59.7,19.6,30.07,SW,236,6.0,8.0,21,0.00,,,0.00,Wunderground v.1.15,2013-03-20 20:12:00,
2013-03-20 14:17:00,59.9,19.8,30.06,SW,217,6.0,10.0,21,0.00,,,0.00,Wunderground v.1.15,2013-03-20 20:17:00,
2013-03-20 14:22:00,60.3,20.2,30.06,WSW,240,7.0,8.0,21,0.00,,,0.00,Wunderground v.1.15,2013-03-20 20:22:00,
2013-03-20 14:27:00,60.6,19.3,30.05,SW,224,8.0,12.0,20,0.00,,,0.00,Wunderground v.1.15,2013-03-20 20:27:00,
2013-03-20 14:33:00,60.0,19.9,30.04,SSW,194,9.0,11.0,21,0.00,,,0.00,Wunderground v.1.15,2013-03-20 20:33:00,
2013-03-20 14:38:00,60.6,20.4,30.04,South,191,7.0,11.0,21,0.00,,,0.00,Wunderground v.1.15,2013-03-20 20:38:00,
2013-03-20 14:44:00,60.7,20.5,30.03,SW,236,7.0,11.0,21,0.00,,,0.00,Wunderground v.1.15,2013-03-20 20:44:00,
2013-03-20 14:49:00,61.0,19.6,30.03,SW,217,8.0,11.0,20,0.00,,,0.00,Wunderground v.1.15,2013-03-20 20:49:00,
2013-03-20 14:55:00,60.6,19.3,30.02,SSW,205,9.0,11.0,20,0.00,,,0.00,Wunderground v.1.15,2013-03-20 20:55:00,
2013-03-20 15:00:00,61.0,19.6,30.02,SSW,207,9.0,10.0,20,0.00,,,0.00,Wunderground v.1.15,2013-03-20 21:00:00,
2013-03-20 15:05:00,61.1,19.7,30.02,SW,231,9.0,12.0,20,0.00,,,0.00,Wunderground v.1.15,2013-03-20 21:05:00,
2013-03-20 15:10:00,61.2,19.8,30.01,SW,220,9.0,9.0,20,0.00,,,0.00,Wunderground v.1.15,2013-03-20 21:10:00,
2013-03-20 15:15:00,61.1,19.7,30.01,SW,218,8.0,9.0,20,0.00,,,0.00,Wunderground v.1.15,2013-03-20 21:15:00,
2013-03-20 15:21:00,60.9,19.5,30.01,SW,214,9.0,12.0,20,0.00,,,0.00,Wunderground v.1.15,2013-03-20 21:21:00,
2013-03-20 15:27:00,61.6,18.9,30.00,WSW,245,10.0,14.0,19,0.00,,,0.00,Wunderground v.1.15,2013-03-20 21:27:00,
2013-03-20 15:32:00,61.5,20.0,30.00,SSW,206,8.0,10.0,20,0.00,,,0.00,Wunderground v.1.15,2013-03-20 21:32:00,
2013-03-20 15:38:00,61.5,20.0,30.00,SSW,211,8.0,10.0,20,0.00,,,0.00,Wunderground v.1.15,2013-03-20 21:38:00,
2013-03-20 15:43:00,62.0,19.2,30.00,WSW,238,8.0,12.0,19,0.00,,,0.00,Wunderground v.1.15,2013-03-20 21:43:00,
2013-03-20 15:49:00,62.0,19.2,30.00,SSW,210,7.0,12.0,19,0.00,,,0.00,Wunderground v.1.15,2013-03-20 21:49:00,
2013-03-20 15:54:00,61.9,20.3,30.00,SW,223,8.0,11.0,20,0.00,,,0.00,Wunderground v.1.15,2013-03-20 21:54:00,
2013-03-20 16:00:00,62.2,19.4,30.00,WSW,240,8.0,11.0,19,0.00,,,0.00,Wunderground v.1.15,2013-03-20 22:00:00,
2013-03-20 16:05:00,62.8,19.9,29.99,SW,220,9.0,11.0,19,0.00,,,0.00,Wunderground v.1.15,2013-03-20 22:05:00,
2013-03-20 16:10:00,63.4,19.1,29.99,WSW,252,9.0,9.0,18,0.00,,,0.00,Wunderground v.1.15,2013-03-20 22:10:00,
2013-03-20 16:16:00,63.9,19.5,29.99,SSW,209,8.0,13.0,18,0.00,,,0.00,Wunderground v.1.15,2013-03-20 22:16:00,
2013-03-20 16:22:00,63.7,19.3,29.98,SSW,213,8.0,10.0,18,0.00,,,0.00,Wunderground v.1.15,2013-03-20 22:22:00,
2013-03-20 16:27:00,63.8,19.4,29.98,SW,236,7.0,13.0,18,0.00,,,0.00,Wunderground v.1.15,2013-03-20 22:27:00,
2013-03-20 16:33:00,64.0,19.6,29.98,WSW,242,7.0,11.0,18,0.00,,,0.00,Wunderground v.1.15,2013-03-20 22:33:00,
2013-03-20 16:38:00,64.1,19.7,29.97,SSW,199,8.0,13.0,18,0.00,,,0.00,Wunderground v.1.15,2013-03-20 22:38:00,
2013-03-20 16:44:00,63.8,19.4,29.97,SW,236,8.0,15.0,18,0.00,,,0.00,Wunderground v.1.15,2013-03-20 22:44:00,
2013-03-20 16:49:00,63.7,19.3,29.97,SW,222,9.0,15.0,18,0.00,,,0.00,Wunderground v.1.15,2013-03-20 22:49:00,
2013-03-20 16:55:00,63.0,18.8,29.96,SW,222,8.0,13.0,18,0.00,,,0.00,Wunderground v.1.15,2013-03-20 22:55:00,
2013-03-20 17:00:00,62.8,18.6,29.96,WSW,252,8.0,8.0,18,0.00,,,0.00,Wunderground v.1.15,2013-03-20 23:00:00,
2013-03-20 17:06:00,62.8,18.6,29.96,SW,232,8.0,13.0,18,0.00,,,0.00,Wunderground v.1.15,2013-03-20 23:06:00,
2013-03-20 17:11:00,62.8,19.9,29.95,WSW,241,7.0,7.0,19,0.00,,,0.00,Wunderground v.1.15,2013-03-20 23:11:00,
2013-03-20 17:17:00,62.6,18.4,29.95,SW,223,7.0,11.0,18,0.00,,,0.00,Wunderground v.1.15,2013-03-20 23:17:00,
2013-03-20 17:23:00,62.3,19.5,29.94,SW,231,7.0,7.0,19,0.00,,,0.00,Wunderground v.1.15,2013-03-20 23:23:00,
2013-03-20 17:29:00,62.5,18.4,29.94,SW,234,7.0,10.0,18,0.00,,,0.00,Wunderground v.1.15,2013-03-20 23:29:00,
2013-03-20 17:34:00,62.3,19.5,29.94,SSW,207,8.0,10.0,19,0.00,,,0.00,Wunderground v.1.15,2013-03-20 23:34:00,
2013-03-20 17:40:00,62.1,19.3,29.94,SW,229,7.0,9.0,19,0.00,,,0.00,Wunderground v.1.15,2013-03-20 23:40:00,
2013-03-20 17:46:00,62.0,19.2,29.93,WSW,237,8.0,10.0,19,0.00,,,0.00,Wunderground v.1.15,2013-03-20 23:46:00,
2013-03-20 17:51:00,62.2,19.4,29.94,SW,224,7.0,9.0,19,0.00,,,0.00,Wunderground v.1.15,2013-03-20 23:51:00,
2013-03-20 17:57:00,62.1,19.3,29.93,SW,227,8.0,13.0,19,0.00,,,0.00,Wunderground v.1.15,2013-03-20 23:57:00,
2013-03-20 18:03:00,61.8,19.0,29.93,SSW,204,9.0,11.0,19,0.00,,,0.00,Wunderground v.1.15,2013-03-21 00:03:00,
2013-03-20 18:08:00,61.7,19.0,29.93,SW,227,8.0,11.0,19,0.00,,,0.00,Wunderground v.1.15,2013-03-21 00:08:00,
2013-03-20 18:14:00,61.5,20.0,29.92,SW,222,9.0,13.0,20,0.00,,,0.00,Wunderground v.1.15,2013-03-21 00:14:00,
2013-03-20 18:19:00,61.4,19.9,29.92,SW,221,10.0,13.0,20,0.00,,,0.00,Wunderground v.1.15,2013-03-21 00:19:00,
2013-03-20 18:25:00,61.4,19.9,29.92,SW,234,8.0,10.0,20,0.00,,,0.00,Wunderground v.1.15,2013-03-21 00:25:00,
2013-03-20 18:30:00,61.3,19.8,29.92,SW,225,7.0,11.0,20,0.00,,,0.00,Wunderground v.1.15,2013-03-21 00:30:00,
2013-03-20 18:36:00,61.3,19.8,29.92,SW,222,7.0,11.0,20,0.00,,,0.00,Wunderground v.1.15,2013-03-21 00:36:00,
2013-03-20 18:41:00,61.2,19.8,29.92,SW,227,7.0,7.0,20,0.00,,,0.00,Wunderground v.1.15,2013-03-21 00:41:00,
2013-03-20 18:47:00,61.1,19.7,29.92,SW,219,5.0,7.0,20,0.00,,,0.00,Wunderground v.1.15,2013-03-21 00:47:00,
2013-03-20 18:53:00,61.0,19.6,29.91,SSW,213,5.0,6.0,20,0.00,,,0.00,Wunderground v.1.15,2013-03-21 00:53:00,
2013-03-20 18:58:00,60.9,20.7,29.91,SW,219,5.0,6.0,21,0.00,,,0.00,Wunderground v.1.15,2013-03-21 00:58:00,
2013-03-20 19:04:00,60.7,20.5,29.91,SW,219,4.0,5.0,21,0.00,,,0.00,Wunderground v.1.15,2013-03-21 01:04:00,
2013-03-20 19:10:00,60.7,20.5,29.91,SW,218,3.0,4.0,21,0.00,,,0.00,Wunderground v.1.15,2013-03-21 01:10:00,
2013-03-20 19:15:00,60.6,20.4,29.91,SW,218,3.0,4.0,21,0.00,,,0.00,Wunderground v.1.15,2013-03-21 01:15:00,
2013-03-20 19:21:00,60.5,20.3,29.92,SW,218,1.0,2.0,21,0.00,,,0.00,Wunderground v.1.15,2013-03-21 01:21:00,
2013-03-20 19:26:00,60.3,20.2,29.92,SW,218,0.0,2.0,21,0.00,,,0.00,Wunderground v.1.15,2013-03-21 01:26:00,
2013-03-20 19:31:00,60.1,20.0,29.92,SW,218,0.0,2.0,21,0.00,,,0.00,Wunderground v.1.15,2013-03-21 01:31:00,
2013-03-20 19:37:00,60.0,19.9,29.91,SW,218,1.0,4.0,21,0.00,,,0.00,Wunderground v.1.15,2013-03-21 01:37:00,
2013-03-20 19:42:00,59.9,19.8,29.91,SW,218,1.0,2.0,21,0.00,,,0.00,Wunderground v.1.15,2013-03-21 01:42:00,
2013-03-20 19:48:00,59.8,19.7,29.91,SW,218,1.0,2.0,21,0.00,,,0.00,Wunderground v.1.15,2013-03-21 01:48:00,
2013-03-20 19:53:00,59.6,20.7,29.91,SW,218,0.0,0.0,22,0.00,,,0.00,Wunderground v.1.15,2013-03-21 01:53:00,
2013-03-20 19:58:00,59.5,20.6,29.92,WSW,254,1.0,7.0,22,0.00,,,0.00,Wunderground v.1.15,2013-03-21 01:58:00,
2013-03-20 20:04:00,59.5,19.5,29.92,NW,304,3.0,6.0,21,0.00,,,0.00,Wunderground v.1.15,2013-03-21 02:04:00,
2013-03-20 20:10:00,59.5,19.5,29.92,NW,315,4.0,5.0,21,0.00,,,0.00,Wunderground v.1.15,2013-03-21 02:10:00,
2013-03-20 20:16:00,59.8,19.7,29.92,NW,320,4.0,5.0,21,0.00,,,0.00,Wunderground v.1.15,2013-03-21 02:16:00,
2013-03-20 20:21:00,59.9,19.8,29.91,NW,320,1.0,2.0,21,0.00,,,0.00,Wunderground v.1.15,2013-03-21 02:21:00,
2013-03-20 20:27:00,59.7,19.6,29.91,NW,320,0.0,2.0,21,0.00,,,0.00,Wunderground v.1.15,2013-03-21 02:27:00,
2013-03-20 20:32:00,59.5,19.5,29.91,NW,320,0.0,0.0,21,0.00,,,0.00,Wunderground v.1.15,2013-03-21 02:32:00,
2013-03-20 20:38:00,59.4,20.5,29.91,NW,320,0.0,2.0,22,0.00,,,0.00,Wunderground v.1.15,2013-03-21 02:38:00,
2013-03-20 20:44:00,59.4,20.5,29.91,NW,320,0.0,0.0,22,0.00,,,0.00,Wunderground v.1.15,2013-03-21 02:44:00,
2013-03-20 20:49:00,59.3,20.4,29.91,NW,320,0.0,0.0,22,0.00,,,0.00,Wunderground v.1.15,2013-03-21 02:49:00,
2013-03-20 20:55:00,58.9,20.1,29.91,NW,320,0.0,0.0,22,0.00,,,0.00,Wunderground v.1.15,2013-03-21 02:55:00,
2013-03-20 21:00:00,58.7,21.0,29.91,NW,320,0.0,1.0,23,0.00,,,0.00,Wunderground v.1.15,2013-03-21 03:00:00,
2013-03-20 21:06:00,58.4,20.7,29.91,NW,320,0.0,1.0,23,0.00,,,0.00,Wunderground v.1.15,2013-03-21 03:06:00,
2013-03-20 21:11:00,58.2,20.5,29.90,NW,320,0.0,0.0,23,0.00,,,0.00,Wunderground v.1.15,2013-03-21 03:11:00,
2013-03-20 21:17:00,58.0,20.4,29.90,NW,320,0.0,1.0,23,0.00,,,0.00,Wunderground v.1.15,2013-03-21 03:17:00,
2013-03-20 21:22:00,58.1,20.4,29.90,NW,320,0.0,3.0,23,0.00,,,0.00,Wunderground v.1.15,2013-03-21 03:22:00,
2013-03-20 21:28:00,58.2,21.5,29.90,NW,320,0.0,3.0,24,0.00,,,0.00,Wunderground v.1.15,2013-03-21 03:28:00,
2013-03-20 21:33:00,58.2,21.5,29.90,NW,320,0.0,5.0,24,0.00,,,0.00,Wunderground v.1.15,2013-03-21 03:33:00,
2013-03-20 21:38:00,58.4,21.7,29.90,NW,320,1.0,5.0,24,0.00,,,0.00,Wunderground v.1.15,2013-03-21 03:38:00,
2013-03-20 21:44:00,58.2,22.5,29.90,NW,320,1.0,3.0,25,0.00,,,0.00,Wunderground v.1.15,2013-03-21 03:44:00,
2013-03-20 21:49:00,58.3,23.5,29.90,NW,320,0.0,3.0,26,0.00,,,0.00,Wunderground v.1.15,2013-03-21 03:49:00,
2013-03-20 21:54:00,58.7,24.8,29.90,NW,322,2.0,4.0,27,0.00,,,0.00,Wunderground v.1.15,2013-03-21 03:54:00,
2013-03-20 21:59:00,59.0,25.0,29.89,NW,322,2.0,4.0,27,0.00,,,0.00,Wunderground v.1.15,2013-03-21 03:59:00,
2013-03-20 22:00:00,59.0,25.0,29.89,NW,322,2.0,3.0,27,0.00,,,0.00,Wunderground v.1.15,2013-03-21 04:00:00,
2013-03-20 22:01:00,59.1,25.1,29.89,NW,323,2.0,8.0,27,0.00,,,0.00,Wunderground v.1.15,2013-03-21 04:01:00,
2013-03-20 22:02:00,59.2,25.2,29.90,NW,324,2.0,8.0,27,0.00,,,0.00,Wunderground v.1.15,2013-03-21 04:02:00,
2013-03-20 22:05:00,59.2,25.2,29.89,NW,324,1.0,8.0,27,0.00,,,0.00,Wunderground v.1.15,2013-03-21 04:05:00,
2013-03-20 22:11:00,59.1,25.1,29.89,NW,324,1.0,1.0,27,0.00,,,0.00,Wunderground v.1.15,2013-03-21 04:11:00,
2013-03-20 22:16:00,59.0,25.9,29.89,NW,324,1.0,2.0,28,0.00,,,0.00,Wunderground v.1.15,2013-03-21 04:16:00,
2013-03-20 22:22:00,59.1,26.8,29.89,NW,325,3.0,6.0,29,0.00,,,0.00,Wunderground v.1.15,2013-03-21 04:22:00,
2013-03-20 22:28:00,59.3,26.2,29.89,NW,325,4.0,6.0,28,0.00,,,0.00,Wunderground v.1.15,2013-03-21 04:28:00,
2013-03-20 22:33:00,59.2,26.9,29.89,NW,325,4.0,6.0,29,0.00,,,0.00,Wunderground v.1.15,2013-03-21 04:33:00,
2013-03-20 22:39:00,59.0,26.8,29.88,NW,325,3.0,6.0,29,0.00,,,0.00,Wunderground v.1.15,2013-03-21 04:39:00,
2013-03-20 22:45:00,58.9,26.7,29.88,NW,325,3.0,6.0,29,0.00,,,0.00,Wunderground v.1.15,2013-03-21 04:45:00,
2013-03-20 23:02:00,58.8,26.6,29.87,NNW,327,3.0,5.0,29,0.00,,,0.00,Wunderground v.1.15,2013-03-21 05:02:00,
2013-03-20 23:07:00,58.6,26.4,29.86,NNW,327,3.0,5.0,29,0.00,,,0.00,Wunderground v.1.15,2013-03-21 05:07:00,
2013-03-20 23:13:00,58.3,26.1,29.87,NNW,327,3.0,8.0,29,0.00,,,0.00,Wunderground v.1.15,2013-03-21 05:13:00,
2013-03-20 23:18:00,57.9,26.6,29.86,NNW,327,3.0,8.0,30,0.00,,,0.00,Wunderground v.1.15,2013-03-21 05:18:00,
2013-03-20 23:23:00,57.6,26.4,29.86,NNW,327,3.0,5.0,30,0.00,,,0.00,Wunderground v.1.15,2013-03-21 05:23:00,
2013-03-20 23:28:00,57.3,26.1,29.86,NNW,327,3.0,5.0,30,0.00,,,0.00,Wunderground v.1.15,2013-03-21 05:28:00,
2013-03-20 23:34:00,56.9,26.5,29.86,NNW,327,2.0,3.0,31,0.00,,,0.00,Wunderground v.1.15,2013-03-21 05:34:00,
2013-03-20 23:39:00,56.7,26.4,29.86,NNW,327,2.0,3.0,31,0.00,,,0.00,Wunderground v.1.15,2013-03-21 05:39:00,
2013-03-20 23:45:00,56.4,26.1,29.86,NNW,327,2.0,4.0,31,0.00,,,0.00,Wunderground v.1.15,2013-03-21 05:45:00,
2013-03-20 23:50:00,56.2,26.7,29.85,NNW,327,2.0,4.0,32,0.00,,,0.00,Wunderground v.1.15,2013-03-21 05:50:00,
2013-03-20 23:55:00,56.2,26.7,29.85,NNW,327,4.0,6.0,32,0.00,,,0.00,Wunderground v.1.15,2013-03-21 05:55:00,